STARLINK-3956, 52560

Orbit data source: Space-Track

STARLINK-3956, 52560 is a payload satellite owned by SpaceX/Seattle (US) in LEO that was launched on Fri, 13 May 2022 UTC via an FALCON 9 launch vehicle from the Air Force Western Test Range (AFWTR). Payload-class satellites include a variety of spacecraft equipped with specific instruments for various scientific and technological missions. These include communications satellites like Starlink; space stations such as the ISS; scientific satellites like the Hubble; Earth observation satellites from companies like Planet Labs, Umbra, and HawkEye 360; GPS; miniature CubeSats for education and research; and military/defense satellites.

Loading next visibility...
Identifier
52560, 2022-051AD
Orbit
LEO
Country
Flag of USUS
Related business
Manufacturer
SpaceX/Seattle
Mission
Operational Commercial Communications
Bus & Motor
STARLINK, Unknown motor
Mass
297 kg wet, ~275 kg dry
Launch date (UTC)
2022-05-13 (4 years ago)
Launch vehicle
FALCON 9
Launch site
Air Force Western Test Range (AFWTR)
Object type
Payload
Rocket body
Debris
Shape & HBR
Box + 1 Pan, 10.1 m
Radar Cross Section
13.562 m², Large (>1 m²)

Expand to show TLE details & history
Last TLE update: 2 days ago

TLE from 2 days ago
0 STARLINK-3956
1 52560U 22051AD  26170.98935180 -.00000325  00000-0 -23141-5 0  9995
2 52560  53.1607  19.7668 0001102  90.7082 269.4036 15.08836644227027
Epoch: 2026-06-19T23:44Z
TLE epoch observation values (Epoch: 2026-06-19T23:44:39.995Z)
Latitude
Longitude
115.38974°
Altitude
540.653 km
Speed
7.593 km/s
True Right ascension
01h 19m 04s
True Declination
0° 00' 00"
Sunlit
Object was in daylight at epoch
Visualization orbit readout
Latitude
Unknown
Longitude
Unknown
Altitude
Unknown
Speed
Unknown
Apparent Right ascension
Unknown
Apparent Declination
Unknown
Sunlit
N/A
Visualization observer readout
Local Sidereal Time
21:32:33
Azimuth
Unknown
Elevation
Unknown
Doppler factor
Unknown
Orbital elements
Apogee altitude
540.77 km
Perigee altitude
539.245 km
Semi-major axis
6,918.145 km
Eccentricity
0.00011
Inclination
53.1607°
RAAN
19.7668°
Arg. of periapsis
90.7082°
True anomaly
269.39097°
Mean anomaly
269.4036°
Eccentric anomaly
269.39729°
Mean motion
3.77189 °/min
Orbital period
95.44 mins
BSTAR
-0.0000023141
Loading maneuver chart data...
Computing Atmospheric mass density...
Loading historical data...
Loading historical data...
Loading historical data...
Loading historical data...
Loading historical data...
Loading historical data...
Loading historical data...

Documentation

Showing up to 5 results
|